Location: North Evanston
(42.0634°N, 87.6976°W)
Time: 20:43:14
(UTC+00:00)

Injun/Solrad 3 - Pass Details

Date: 12 May 2026
Orbit: 867 x 989 km, 66.8° (Epoch: 6 June)

Event Time Altitude Azimuth Distance (km) Brightness Sun altitude
Rises 08:31:51 0° 316° (NW) 3,692 11.1 -18.8°
Reaches altitude 10° 08:35:03 10° 301° (WNW) 2,748 10.2 -18.4°
Enters shadow 08:39:22 21° 259° (W) 2,069 9.3 -17.8°
Maximum altitude 08:39:38 21° 256° (WSW) 2,066 - -17.8°
Drops below altitude 10° 08:44:12 10° 210° (SSW) 2,736 - -17.2°
Sets 08:47:25 0° 195° (SSW) 3,671 - -16.8°
